When you browse on this site, cookies collect data to enhance your experience and personalize the content and advertising you see.
Visit our Privacy Policy to learn more. By continuing to use the site, you agree to this use of cookies and data.
  • In Slovakia
  • List of Countries
  • For 7 days
  • Water Temperature
  • Satellite Maps
  • Weather Map
  • Weather Widgets
  • user-avatar
    Login

    Hourly Weather Bandar Seri Begawan

    Today, 14 December, Friday

    Time Temperature Precipitation Wind Pressure Humidity
    00:00 +28°C° 0 mm 2 mps 756 mmHg 87%
    01:00 +28°C° 0 mm 2 mps 756 mmHg 88%
    02:00 +27°C° 0 mm 2 mps 755 mmHg 89%
    03:00 +27°C° 0 mm 2 mps 755 mmHg 88%
    04:00 +27°C° 0 mm 2 mps 755 mmHg 88%
    05:00 +27°C° 0 mm 2 mps 755 mmHg 88%
    06:00 +28°C° 0 mm 2 mps 755 mmHg 85%
    07:00 +28°C° 0 mm 2 mps 756 mmHg 81%
    08:00 +30°C° 0 mm 1 mps 756 mmHg 76%
    09:00 +31°C° 0 mm 1 mps 756 mmHg 69%
    10:00 +33°C° 0 mm 1 mps 755 mmHg 61%
    11:00 +33°C° 0 mm 0 mps 755 mmHg 54%
    12:00 +35°C° 0.1 mm 1 mps 755 mmHg 57%
    13:00 +35°C° 0.1 mm 2 mps 754 mmHg 59%
    14:00 +35°C° 0.1 mm 3 mps 754 mmHg 61%
    15:00 +34°C° 0.7 mm 3 mps 754 mmHg 67%
    16:00 +33°C° 0.7 mm 3 mps 754 mmHg 74%
    17:00 +31°C° 0.7 mm 3 mps 753 mmHg 80%
    18:00 +30°C° 0.8 mm 3 mps 754 mmHg 83%
    19:00 +29°C° 0.8 mm 3 mps 754 mmHg 86%
    20:00 +29°C° 0.8 mm 3 mps 755 mmHg 89%
    21:00 +28°C° 1 mm 3 mps 755 mmHg 90%
    22:00 +28°C° 1 mm 2 mps 755 mmHg 90%
    23:00 +28°C° 1 mm 2 mps 755 mmHg 90%

    Tomorrow, 15 December, Saturday

    Time Temperature Precipitation Wind Pressure Humidity
    00:00 +28°C° 0.3 mm 2 mps 755 mmHg 90%
    01:00 +28°C° 0.3 mm 2 mps 755 mmHg 90%
    02:00 +27°C° 0.3 mm 2 mps 755 mmHg 90%
    03:00 +27°C° 0.2 mm 2 mps 755 mmHg 90%
    04:00 +27°C° 0.2 mm 2 mps 755 mmHg 90%
    05:00 +27°C° 0.2 mm 2 mps 755 mmHg 89%
    06:00 +27°C° 0 mm 2 mps 755 mmHg 87%
    07:00 +28°C° 0 mm 1 mps 755 mmHg 84%
    08:00 +29°C° 0 mm 1 mps 755 mmHg 82%
    09:00 +31°C° 0 mm 1 mps 755 mmHg 73%
    10:00 +33°C° 0 mm 1 mps 755 mmHg 64%
    11:00 +35°C° 0 mm 1 mps 755 mmHg 55%
    12:00 +35°C° 0 mm 1 mps 755 mmHg 55%
    13:00 +36°C° 0 mm 2 mps 754 mmHg 56%
    14:00 +36°C° 0 mm 3 mps 753 mmHg 56%
    15:00 +35°C° 0.2 mm 3 mps 753 mmHg 62%
    16:00 +34°C° 0.2 mm 3 mps 753 mmHg 69%
    17:00 +31°C° 0.2 mm 3 mps 753 mmHg 75%
    18:00 +30°C° 0.8 mm 3 mps 754 mmHg 79%
    19:00 +29°C° 0.8 mm 2 mps 754 mmHg 83%
    20:00 +28°C° 0.8 mm 2 mps 755 mmHg 88%
    21:00 +28°C° 0.2 mm 2 mps 755 mmHg 88%
    22:00 +28°C° 0.2 mm 2 mps 755 mmHg 88%
    23:00 +28°C° 0.2 mm 1 mps 756 mmHg 89%

    Day after tomorrow, 16 December, Sunday

    Time Temperature Precipitation Wind Pressure Humidity
    00:00 +28°C° 0.3 mm 1 mps 756 mmHg 89%
    01:00 +28°C° 0.3 mm 2 mps 755 mmHg 89%
    02:00 +27°C° 0.3 mm 2 mps 755 mmHg 89%
    03:00 +27°C° 0.1 mm 2 mps 755 mmHg 89%
    04:00 +27°C° 0.1 mm 2 mps 755 mmHg 89%
    05:00 +27°C° 0.1 mm 2 mps 755 mmHg 89%
    06:00 +28°C° 0 mm 2 mps 755 mmHg 86%
    07:00 +28°C° 0 mm 2 mps 756 mmHg 83%
    08:00 +29°C° 0 mm 1 mps 756 mmHg 80%
    09:00 +31°C° 0 mm 1 mps 756 mmHg 72%
    10:00 +33°C° 0 mm 1 mps 756 mmHg 63%
    11:00 +33°C° 0 mm 0 mps 756 mmHg 54%
    12:00 +35°C° 0.2 mm 1 mps 755 mmHg 58%
    13:00 +35°C° 0.2 mm 2 mps 755 mmHg 62%
    14:00 +34°C° 0.2 mm 3 mps 754 mmHg 66%
    15:00 +33°C° 0.6 mm 3 mps 754 mmHg 71%
    16:00 +31°C° 0.6 mm 3 mps 754 mmHg 76%
    17:00 +31°C° 0.6 mm 2 mps 753 mmHg 81%
    18:00 +30°C° 0.6 mm 2 mps 754 mmHg 83%
    19:00 +29°C° 0.6 mm 1 mps 755 mmHg 86%
    20:00 +28°C° 0.6 mm 1 mps 756 mmHg 88%
    21:00 +28°C° 0.4 mm 1 mps 756 mmHg 89%
    22:00 +27°C° 0.4 mm 1 mps 756 mmHg 90%
    23:00 +27°C° 0.4 mm 1 mps 757 mmHg 91%

    17 December, Monday

    Time Temperature Precipitation Wind Pressure Humidity
    00:00 +27°C° 0.3 mm 1 mps 756 mmHg 91%
    01:00 +27°C° 0.3 mm 1 mps 756 mmHg 91%
    02:00 +27°C° 0.3 mm 1 mps 755 mmHg 91%
    03:00 +27°C° 0.6 mm 1 mps 755 mmHg 91%
    04:00 +27°C° 0.6 mm 1 mps 755 mmHg 91%
    05:00 +26°C° 0.6 mm 1 mps 755 mmHg 90%
    06:00 +27°C° 0 mm 1 mps 756 mmHg 88%
    07:00 +28°C° 0 mm 2 mps 756 mmHg 86%
    08:00 +28°C° 0 mm 2 mps 757 mmHg 84%
    09:00 +31°C° 0 mm 1 mps 757 mmHg 74%
    10:00 +33°C° 0 mm 1 mps 757 mmHg 64%
    11:00 +33°C° 0 mm 0 mps 757 mmHg 54%
    12:00 +35°C° 0.1 mm 1 mps 756 mmHg 54%
    13:00 +36°C° 0.1 mm 2 mps 755 mmHg 54%
    14:00 +36°C° 0.1 mm 2 mps 754 mmHg 54%
    15:00 +35°C° 0.3 mm 2 mps 754 mmHg 61%
    16:00 +34°C° 0.3 mm 2 mps 754 mmHg 67%
    17:00 +31°C° 0.3 mm 3 mps 754 mmHg 74%
    18:00 +30°C° 0.1 mm 2 mps 754 mmHg 77%
    19:00 +30°C° 0.1 mm 2 mps 755 mmHg 81%
    20:00 +29°C° 0.1 mm 1 mps 756 mmHg 84%
    21:00 +28°C° 0.1 mm 1 mps 756 mmHg 85%
    22:00 +28°C° 0.1 mm 1 mps 757 mmHg 86%
    23:00 +28°C° 0.1 mm 1 mps 757 mmHg 87%

    18 December, Tuesday

    Time Temperature Precipitation Wind Pressure Humidity
    00:00 +28°C° 0.2 mm 1 mps 756 mmHg 88%
    01:00 +28°C° 0.2 mm 1 mps 756 mmHg 89%
    02:00 +27°C° 0.2 mm 1 mps 755 mmHg 90%
    03:00 +27°C° 0.4 mm 1 mps 755 mmHg 90%
    04:00 +27°C° 0.4 mm 1 mps 755 mmHg 90%
    05:00 +27°C° 0.4 mm 1 mps 755 mmHg 91%
    06:00 +28°C° 0.2 mm 1 mps 756 mmHg 88%
    07:00 +28°C° 0.2 mm 1 mps 756 mmHg 85%
    08:00 +29°C° 0.2 mm 1 mps 757 mmHg 83%
    09:00 +31°C° 0 mm 1 mps 756 mmHg 73%
    10:00 +33°C° 0 mm 1 mps 756 mmHg 64%
    11:00 +33°C° 0 mm 0 mps 756 mmHg 55%
    12:00 +35°C° 0.1 mm 1 mps 755 mmHg 57%
    13:00 +35°C° 0.1 mm 2 mps 755 mmHg 59%
    14:00 +35°C° 0.1 mm 2 mps 754 mmHg 61%
    15:00 +34°C° 0.2 mm 3 mps 754 mmHg 64%
    16:00 +33°C° 0.2 mm 3 mps 754 mmHg 68%
    17:00 +33°C° 0.2 mm 3 mps 754 mmHg 71%
    18:00 +31°C° 0.2 mm 3 mps 754 mmHg 76%
    19:00 +30°C° 0.2 mm 3 mps 755 mmHg 80%
    20:00 +29°C° 0.2 mm 3 mps 756 mmHg 85%
    21:00 +29°C° 0.1 mm 3 mps 756 mmHg 86%
    22:00 +28°C° 0.1 mm 3 mps 756 mmHg 87%
    23:00 +28°C° 0.1 mm 2 mps 757 mmHg 88%

    19 December, Wednesday

    Time Temperature Precipitation Wind Pressure Humidity
    00:00 +28°C° 0.5 mm 2 mps 756 mmHg 89%
    01:00 +28°C° 0.5 mm 2 mps 756 mmHg 89%
    02:00 +27°C° 0.5 mm 2 mps 755 mmHg 90%
    03:00 +27°C° 0.2 mm 2 mps 755 mmHg 90%
    04:00 +27°C° 0.2 mm 2 mps 755 mmHg 90%
    05:00 +27°C° 0.2 mm 2 mps 755 mmHg 90%
    06:00 +27°C° 0.1 mm 2 mps 756 mmHg 87%
    07:00 +28°C° 0.1 mm 2 mps 756 mmHg 84%
    08:00 +29°C° 0.1 mm 2 mps 757 mmHg 82%
    09:00 +30°C° 0 mm 2 mps 757 mmHg 73%
    10:00 +32°C° 0 mm 2 mps 757 mmHg 65%
    11:00 +35°C° 0 mm 2 mps 756 mmHg 56%
    12:00 +35°C° 0.1 mm 2 mps 756 mmHg 57%
    13:00 +35°C° 0.1 mm 3 mps 755 mmHg 57%
    14:00 +36°C° 0.1 mm 3 mps 754 mmHg 57%
    15:00 +34°C° 1.1 mm 3 mps 754 mmHg 66%
    16:00 +32°C° 1.1 mm 2 mps 754 mmHg 74%
    17:00 +30°C° 1.1 mm 2 mps 754 mmHg 83%
    18:00 +30°C° 0.5 mm 2 mps 755 mmHg 84%
    19:00 +29°C° 0.5 mm 1 mps 756 mmHg 86%
    20:00 +26°C° 0.5 mm 0 mps 756 mmHg 88%
    21:00 +28°C° 0.9 mm 1 mps 757 mmHg 89%
    22:00 +28°C° 0.9 mm 1 mps 757 mmHg 90%
    23:00 +28°C° 0.9 mm 1 mps 757 mmHg 90%
    Show more